Location: Latimer
(34.1330°N, 82.5927°W)
Time: 01:11:45
(UTC+00:00)

Hubble Space Telescope - Visible Passes

Search period start: 13 August 2022 00:00
Search period end: 23 August 2022 00:00
Orbit: 532 x 535 km, 28.5° (Epoch: 12 August)

Date Brightness Start Highest point End Pass type
(mag) Time Alt. Az. Time Alt. Az. Time Alt. Az.
13 Aug 1.7 01:06:17 10° WSW 01:10:03 34° S 01:12:54 15° SE visible
13 Aug 3.4 02:47:47 10° WSW 02:48:08 11° WSW 02:48:08 11° WSW visible
14 Aug 1.8 00:54:15 10° WSW 00:57:57 32° S 01:01:24 11° SE visible
14 Aug 3.3 02:36:02 10° WSW 02:36:38 12° SW 02:36:38 12° SW visible
15 Aug 2.0 00:42:14 10° WSW 00:45:50 29° S 00:49:26 10° SE visible
15 Aug 3.3 02:24:26 10° SW 02:25:08 12° SW 02:25:08 12° SW visible
16 Aug 3.3 02:13:21 10° SW 02:13:39 10° SSW 02:13:39 10° SSW visible
